Weather History for KOFP - March, 2013

Change the Weather History Date:

Saturday, March 16, 2013

  Actual Average Record
Temperature  
Mean Temperature 54 °F -  
Max Temperature 69 °F 60 °F 80 °F (1990)
Min Temperature 41 °F 35 °F 11 °F (1979)
Degree Days  
Heating Degree Days 10    
Growing Degree Days 4 (Base 50)    
Moisture  
Dew Point 47 °F    
Average Humidity 85    
Maximum Humidity 100    
Minimum Humidity 50    
Precipitation  
Precipitation 0.35 in - - ()
Sea Level Pressure  
Sea Level Pressure 29.77 in    
Wind  
Wind Speed 4 mph (WSW)    
Max Wind Speed 13 mph    
Max Gust Speed 26 mph    
Visibility 6 miles    
Events Fog , Rain , Thunderstorm    
Averages and records for this station are not official NWS values.
T = Trace of Precipitation, MM = Missing Value Source: NWS Daily Summary

Daily Weather History Graph

Daily Weather History Graph

Search for Another Location

Airport or City:

Trip Planner

Search our weather history database for the weather conditions in past years. The results will help you decide how hot, cold, wet, or windy it might be!

Date:

Astronomy

Mar. 16, 2013 Rise Set
Actual Time 7:18 AM EDT 7:18 PM EDT
Civil Twilight 6:52 AM EDT 7:44 PM EDT
Nautical Twilight 6:22 AM EDT 8:14 PM EDT
Astronomical Twilight 5:51 AM EDT 8:45 PM EDT
Moon 9:52 AM EDT (3/16) No Moon Set
Length of Visible Light 12h 51m
Length of Day
11h 59m
Waxing Crescent, 23% of the Moon is Illuminated
Mar 16
Waxing Crescent
Mar 19
First Quarter
Mar 27
Full
Apr 3
Last Quarter
Apr 10
New

Hourly Weather History & Observations

Time (EDT) Temp. Windchill Dew Point Humidity Pressure Visibility Wind Dir Wind Speed Gust Speed Precip Events Conditions
12:54 AM 50.0 °F - 33.1 °F 52% 29.83 in 10.0 mi SW 6.9 mph - N/A   Clear
1:54 AM 46.0 °F - 34.0 °F 63% 29.83 in 10.0 mi Calm Calm - N/A   Clear
2:54 AM 41.0 °F - 34.0 °F 76% 29.82 in 10.0 mi Calm Calm - N/A   Clear
3:54 AM 42.1 °F - 35.1 °F 76% 29.81 in 10.0 mi Calm Calm - N/A   Mostly Cloudy
4:54 AM 43.0 °F - 37.0 °F 80% 29.81 in 10.0 mi Calm Calm - N/A   Overcast
5:54 AM 44.1 °F - 37.9 °F 79% 29.81 in 10.0 mi Calm Calm - N/A   Overcast
6:54 AM 44.1 °F - 39.0 °F 82% 29.81 in 10.0 mi Calm Calm - N/A   Overcast
7:54 AM 45.0 °F 43.5 °F 41.0 °F 86% 29.83 in 5.0 mi WNW 3.5 mph - 0.01 in Rain Light Rain
8:13 AM 44.6 °F - 42.8 °F 93% 29.85 in 2.0 mi Calm Calm - 0.08 in Rain Rain
8:30 AM 44.6 °F - 44.6 °F 100% 29.85 in 3.0 mi Calm Calm - 0.09 in Rain Light Rain
8:35 AM 44.6 °F - 44.6 °F 100% 29.84 in 1.8 mi Calm Calm - 0.10 in Rain Light Rain
8:54 AM 44.1 °F - 44.1 °F 100% 29.84 in 2.5 mi Calm Calm - 0.10 in Rain Light Rain
9:02 AM 44.6 °F - 44.6 °F 100% 29.84 in 4.0 mi Calm Calm - 0.00 in   Overcast
9:54 AM 46.9 °F - 45.0 °F 93% 29.81 in 6.0 mi SE 3.5 mph - 0.00 in   Mostly Cloudy
10:54 AM 52.0 °F - 46.0 °F 80% 29.78 in 7.0 mi East 4.6 mph - N/A   Scattered Clouds
11:54 AM 57.9 °F - 45.0 °F 62% 29.75 in 10.0 mi Variable 6.9 mph - N/A   Clear
12:54 PM 59.0 °F - 45.0 °F 60% 29.73 in 10.0 mi South 12.7 mph - N/A   Clear
1:54 PM 61.0 °F - 46.9 °F 60% 29.70 in 10.0 mi South 8.1 mph - N/A   Clear
2:54 PM 64.0 °F - 48.0 °F 56% 29.68 in 10.0 mi South 9.2 mph - N/A   Clear
3:54 PM 66.9 °F - 48.0 °F 51% 29.63 in 10.0 mi South 11.5 mph - N/A   Scattered Clouds
4:54 PM 68.0 °F - 48.9 °F 50% 29.61 in 10.0 mi SSW 6.9 mph - N/A   Mostly Cloudy
5:44 PM 64.4 °F - 48.2 °F 56% 29.66 in 10.0 mi North 8.1 mph - N/A Thunderstorm Overcast
6:03 PM 59.0 °F - 53.6 °F 82% 29.69 in 2.5 mi NNW 6.9 mph 17.3 mph 0.03 in Rain , Thunderstorm Light Rain
6:10 PM 57.2 °F - 53.6 °F 88% 29.69 in 3.0 mi Variable 5.8 mph 21.9 mph 0.06 in Rain Rain
6:14 PM 57.2 °F - 53.6 °F 88% 29.69 in 2.5 mi NW 10.4 mph 21.9 mph 0.07 in Rain , Thunderstorm Thunderstorms and Rain
6:26 PM 57.2 °F - 55.4 °F 94% 29.70 in 3.0 mi West 12.7 mph - 0.11 in Rain , Thunderstorm Thunderstorms and Rain
6:46 PM 57.2 °F - 55.4 °F 94% 29.68 in 2.5 mi SW 9.2 mph 26.5 mph 0.21 in Rain , Thunderstorm Rain
6:54 PM 57.0 °F - 55.0 °F 93% 29.69 in 6.0 mi WSW 8.1 mph - 0.21 in Rain , Thunderstorm Light Rain
7:01 PM 57.2 °F - 55.4 °F 94% 29.71 in 10.0 mi WSW 8.1 mph - 0.00 in   Overcast
7:54 PM 55.0 °F - 55.0 °F 100% 29.72 in 9.0 mi Calm Calm - 0.03 in   Overcast
8:26 PM 53.6 °F - 53.6 °F 100% 29.73 in 1.8 mi Calm Calm - N/A   Partly Cloudy
8:30 PM 53.6 °F - 53.6 °F 100% 29.73 in 0.8 mi Calm Calm - N/A   Partly Cloudy
8:44 PM 53.6 °F - 53.6 °F 100% 29.74 in 1.0 mi Calm Calm - N/A   Clear
8:51 PM 53.6 °F - 53.6 °F 100% 29.74 in 2.0 mi Calm Calm - N/A   Clear
8:54 PM 53.1 °F - 53.1 °F 100% 29.75 in 2.0 mi Calm Calm - N/A   Clear
8:57 PM 53.6 °F - 53.6 °F 100% 29.75 in 1.2 mi Calm Calm - N/A   Clear
9:05 PM 53.6 °F - 53.6 °F 100% 29.76 in 0.5 mi North 6.9 mph - N/A Fog Fog
9:13 PM 53.6 °F - 53.6 °F 100% 29.77 in 3.0 mi Variable 3.5 mph - N/A   Partly Cloudy
9:54 PM 54.0 °F - 54.0 °F 100% 29.81 in 9.0 mi Variable 3.5 mph - N/A   Overcast
10:54 PM 50.0 °F - 48.0 °F 93% 29.86 in 9.0 mi NNE 10.4 mph 16.1 mph N/A   Scattered Clouds
11:03 PM 50.0 °F - 46.4 °F 87% 29.86 in 9.0 mi North 8.1 mph 16.1 mph N/A   Mostly Cloudy
11:15 PM 48.2 °F - 44.6 °F 87% 29.86 in 9.0 mi Variable 3.5 mph - N/A   Scattered Clouds
11:54 PM 46.0 °F 43.1 °F 42.1 °F 86% 29.89 in 9.0 mi Variable 5.8 mph - N/A   Partly Cloudy